Location: Dötzum
(52.0808°N, 9.8063°E)
Time: 05:31:56
(UTC+00:00)

MSX - Pass Details

Date: 27 May 2022
Orbit: 895 x 905 km, 98.9° (Epoch: 26 June)

Event Time Altitude Azimuth Distance (km) Brightness Sun altitude
Rises 02:15:37 0° 15° (NNE) 3,536 8.2 -7.1°
Reaches altitude 10° 02:18:02 10° 14° (NNE) 2,592 7.4 -6.8°
Maximum altitude 02:23:49 80° 288° (WNW) 922 3.9 -6.2°
Drops below altitude 10° 02:29:34 10° 203° (SSW) 2,580 5.6 -5.6°
Enters shadow 02:30:57 - 202° (SSW) 3,119 6.1 -5.5°
